Location: Miramichi City (Newcastle)
(46.9830°N, 65.5670°W)
Time: 06:43:11
(UTC-03:00)

Iridium 12 - Visible Passes

Search period start: 02 April 2015 00:00
Search period end: 12 April 2015 00:00
Orbit: 776 x 779 km, 86.4° (Epoch: 01 April)

Date Brightness Start Highest point End Pass type
(mag) Time Alt. Az. Time Alt. Az. Time Alt. Az.
02 Apr 6.2 21:15:47 10° NNE 21:20:29 34° ENE 21:22:40 24° ESE visible
02 Apr 7.0 22:56:34 10° NNW 23:01:14 33° W 23:03:11 25° WSW visible
03 Apr 6.9 20:42:52 10° NNE 20:46:37 20° ENE 20:49:43 13° ESE visible
03 Apr 6.0 22:22:43 10° N 22:27:51 58° W 22:30:14 31° SSW visible
04 Apr 5.4 21:49:06 10° N 21:54:21 82° E 21:57:18 27° S visible
04 Apr 8.1 23:31:41 10° NW 23:34:27 14° WNW 23:36:59 10° WSW visible
05 Apr 5.8 21:15:42 10° N 21:20:44 47° E 21:24:25 18° SSE visible
05 Apr 7.5 22:57:02 10° NNW 23:01:13 24° W 23:04:56 12° SW visible
06 Apr 6.5 20:42:34 10° NNE 20:46:58 27° ENE 20:51:26 10° SE visible
06 Apr 6.7 22:22:59 10° NNW 22:27:54 41° W 22:32:05 13° SSW visible
07 Apr 5.7 21:49:15 10° N 21:54:28 73° W 21:59:17 12° S visible
08 Apr 5.5 21:15:42 10° N 21:20:56 66° E 21:26:06 10° SSE visible
08 Apr 8.0 22:57:42 10° NW 23:01:10 18° WNW 23:04:26 10° WSW visible
09 Apr 6.1 20:42:23 10° N 20:47:14 38° ENE 20:52:05 10° SSE visible
09 Apr 7.3 22:23:21 10° NNW 22:27:53 30° W 22:32:20 10° SW visible
10 Apr 6.3 21:49:26 10° NNW 21:54:31 51° W 21:59:33 10° SSW visible
11 Apr 5.5 21:15:47 10° N 21:21:03 89° WSW 21:26:16 10° S visible
11 Apr 8.4 22:58:47 10° NW 23:01:03 13° WNW 23:03:04 10° W visible
